This is the latest recevied weather packets stored in our database for station/object KK4MOR. If no packets are shown the sender has not sent any weather packets the latest 10 day(s).
| Time | Temp. | Humidity | Pressure | Rain* | Wind** | Luminosity | Snow |
|---|---|---|---|---|---|---|---|
| 1777935602 | 23.33° C | 47% | 1009.6 hPa | 0 mm | - | - | - |
| 1777934763 | 23.89° C | 45% | 1009.6 hPa | 0 mm | - | - | - |
| 1777933859 | 23.89° C | 45% | 1009.6 hPa | 0 mm | - | - | - |
| 1777932959 | 23.89° C | 44% | 1009.7 hPa | 0 mm | - | - | - |
| 1777932078 | 24.44° C | 44% | 1009.7 hPa | 0 mm | - | - | - |
| 1777931159 | 24.44° C | 46% | 1009.7 hPa | 0 mm | - | - | - |
| 1777930261 | 24.44° C | 47% | 1009.8 hPa | 0 mm | - | - | - |
| 1777929357 | 24.44° C | 47% | 1009.8 hPa | 0 mm | - | - | - |
| 1777928454 | 24.44° C | 48% | 1010 hPa | 0 mm | - | - | - |
| 1777927553 | 24.44° C | 46% | 1010 hPa | 0 mm | - | - | - |
| 1777926651 | 24.44° C | 48% | 1010.1 hPa | 0 mm | - | - | - |
| 1777925748 | 24.44° C | 47% | 1010.2 hPa | 0 mm | - | - | - |
| 1777924851 | 24.44° C | 49% | 1010.5 hPa | 0 mm | - | - | - |
| 1777923946 | 24.44° C | 49% | 1010.8 hPa | 0 mm | - | - | - |
| 1777923042 | 24.44° C | 48% | 1011.1 hPa | 0 mm | - | - | - |
| 1777922152 | 23.89° C | 50% | 1011.1 hPa | 0 mm | - | - | - |
| 1777921244 | 24.44° C | 49% | 1011.4 hPa | 0 mm | - | - | - |
| 1777920348 | 23.89° C | 53% | 1011.5 hPa | 0 mm | - | - | - |
| 1777919441 | 23.33° C | 51% | 1011.8 hPa | 0 mm | - | - | - |
| 1777918532 | 23.89° C | 50% | 1011.9 hPa | 0 mm | - | - | - |
| 1777917630 | 23.33° C | 52% | 1012.1 hPa | 0 mm | - | - | - |
| 1777916727 | 23.33° C | 52% | 1012.1 hPa | 0 mm | - | - | - |
| 1777915826 | 23.33° C | 53% | 1012.4 hPa | 0 mm | - | - | - |
| 1777914920 | 22.22° C | 54% | 1012.5 hPa | 0 mm | - | - | - |
| 1777914017 | 22.22° C | 54% | 1012.7 hPa | 0 mm | - | - | - |
* Rain latest hour (hover to see other rain measurements)
** Current wind speed in m/s (hover to see current wind gust speed)